Weather History for KMHT - July, 2013

Change the Weather History Date:

Thursday, July 11, 2013

  Actual Average Record
Temperature  
Mean Temperature 76 °F -  
Max Temperature 82 °F 83 °F 96 °F (1993)
Min Temperature 71 °F 57 °F 44 °F (1953)
Cooling Degree Days 12    
Growing Degree Days 26 (Base 50)    
Moisture  
Dew Point 71 °F    
Average Humidity 86    
Maximum Humidity 100    
Minimum Humidity 67    
Precipitation  
Precipitation 0.33 in - - ()
Sea Level Pressure  
Sea Level Pressure 29.84 in    
Wind  
Wind Speed 4 mph (South)    
Max Wind Speed 13 mph    
Max Gust Speed 24 mph    
Visibility 6 miles    
Events Rain    
Averages and records for this station are not official NWS values.
T = Trace of Precipitation, MM = Missing Value Source: NWS Daily Summary

Daily Weather History Graph

Daily Weather History Graph

Search for Another Location

Airport or City:

Trip Planner

Search our weather history database for the weather conditions in past years. The results will help you decide how hot, cold, wet, or windy it might be!

Date:

Astronomy

Jul. 11, 2013 Rise Set
Actual Time 5:17 AM EDT 8:24 PM EDT
Civil Twilight 4:42 AM EDT 8:59 PM EDT
Nautical Twilight 3:58 AM EDT 9:43 PM EDT
Astronomical Twilight 3:05 AM EDT 10:35 PM EDT
Moon 8:38 AM EDT (7/11) 9:56 PM EDT (7/11)
Length of Visible Light 16h 16m
Length of Day
15h 07m
Waxing Crescent, 10% of the Moon is Illuminated
Jul 11
Waxing Crescent
Jul 15
First Quarter
Jul 22
Full
Jul 29
Last Quarter
Aug 6
New

Hourly Weather History & Observations

Time (EDT) Temp. Heat Index Dew Point Humidity Pressure Visibility Wind Dir Wind Speed Gust Speed Precip Events Conditions
12:53 AM 73.9 °F - 73.0 °F 97% 29.80 in 2.0 mi South 5.8 mph - N/A   Clear
1:53 AM 73.9 °F - 72.0 °F 93% 29.78 in 2.0 mi South 4.6 mph - N/A   Clear
2:01 AM 73.4 °F - 71.6 °F 94% 29.76 in 3.0 mi South 5.8 mph - N/A   Clear
2:07 AM 73.4 °F - 71.6 °F 94% 29.75 in 3.0 mi South 5.8 mph - N/A   Partly Cloudy
2:53 AM 73.0 °F - 72.0 °F 96% 29.77 in 1.5 mi South 5.8 mph - N/A   Clear
3:53 AM 73.0 °F - 72.0 °F 96% 29.80 in 1.5 mi Calm Calm - N/A   Scattered Clouds
4:53 AM 73.0 °F - 71.1 °F 93% 29.80 in 1.5 mi Calm Calm - N/A   Partly Cloudy
5:10 AM 73.4 °F - 71.6 °F 94% 29.78 in 1.0 mi Calm Calm - N/A   Mostly Cloudy
5:53 AM 72.0 °F - 71.1 °F 97% 29.81 in 2.0 mi Calm Calm - N/A   Mostly Cloudy
5:57 AM 71.6 °F - 71.6 °F 100% 29.78 in 3.0 mi SSE 3.5 mph - N/A   Mostly Cloudy
6:53 AM 73.0 °F - 71.1 °F 93% 29.82 in 4.0 mi South 4.6 mph - N/A   Mostly Cloudy
7:53 AM 73.9 °F - 72.0 °F 93% 29.82 in 5.0 mi SSW 3.5 mph - N/A   Mostly Cloudy
8:53 AM 75.0 °F - 72.0 °F 90% 29.82 in 6.0 mi Calm Calm - N/A   Mostly Cloudy
9:53 AM 75.9 °F - 72.0 °F 87% 29.84 in 6.0 mi SSW 4.6 mph - 0.01 in Rain Light Rain
10:53 AM 75.9 °F - 73.0 °F 91% 29.85 in 7.0 mi South 4.6 mph - 0.00 in Rain Light Rain
11:20 AM 75.2 °F - 73.4 °F 94% 29.82 in 9.0 mi Calm Calm - 0.00 in   Mostly Cloudy
11:53 AM 77.0 °F - 72.0 °F 84% 29.86 in 10.0 mi South 3.5 mph - 0.00 in   Overcast
12:53 PM 79.0 °F - 72.0 °F 79% 29.85 in 10.0 mi Variable 4.6 mph - N/A   Mostly Cloudy
1:17 PM 80.6 °F 84.6 °F 71.6 °F 74% 29.82 in 10.0 mi South 5.8 mph - N/A   Scattered Clouds
1:53 PM 81.0 °F 84.4 °F 70.0 °F 69% 29.83 in 10.0 mi South 5.8 mph - N/A   Scattered Clouds
2:53 PM 82.0 °F 85.9 °F 70.0 °F 67% 29.83 in 10.0 mi Calm Calm - N/A   Mostly Cloudy
3:53 PM 82.0 °F 85.9 °F 70.0 °F 67% 29.83 in 10.0 mi South 6.9 mph - N/A   Mostly Cloudy
4:25 PM 73.4 °F - 69.8 °F 88% 29.84 in 1.5 mi NNE 12.7 mph 24.2 mph 0.11 in Rain Rain
4:37 PM 71.6 °F - 69.8 °F 94% 29.83 in 4.0 mi NE 10.4 mph - 0.32 in Rain Light Rain
4:53 PM 73.9 °F - 70.0 °F 87% 29.85 in 10.0 mi ENE 8.1 mph - 0.32 in   Mostly Cloudy
5:53 PM 79.0 °F - 71.1 °F 77% 29.87 in 10.0 mi ENE 3.5 mph - N/A   Mostly Cloudy
6:53 PM 79.0 °F - 71.1 °F 77% 29.88 in 10.0 mi Calm Calm - N/A   Scattered Clouds
7:53 PM 79.0 °F - 70.0 °F 74% 29.90 in 10.0 mi NNW 3.5 mph - N/A   Scattered Clouds
8:53 PM 75.9 °F - 69.1 °F 79% 29.92 in 10.0 mi WNW 3.5 mph - N/A   Mostly Cloudy
9:53 PM 75.0 °F - 66.9 °F 76% 29.94 in 10.0 mi NNW 9.2 mph - N/A   Mostly Cloudy
10:53 PM 73.0 °F - 66.0 °F 79% 29.95 in 10.0 mi NNW 4.6 mph - N/A   Partly Cloudy
11:53 PM 72.0 °F - 64.9 °F 78% 29.96 in 10.0 mi NNW 4.6 mph - N/A   Partly Cloudy